Time,TemperatureF,DewpointF,PressureIn,WindDirection,WindDirectionDegrees,WindSpeedMPH,WindSpeedGustMPH,Humidity,HourlyPrecipIn,Conditions,Clouds,dailyrainin,SoftwareType,DateUTC
2013-05-04 00:04:00,50.0,41.9,30.36,North,360,0.0,0.0,73,0.00,,SCT250,0.00,VWS V14.01,2013-05-04 04:04:00,
2013-05-04 00:14:00,49.9,42.2,30.36,North,360,0.0,0.0,75,0.00,,SCT250,0.00,VWS V14.01,2013-05-04 04:14:00,
2013-05-04 00:19:00,49.8,42.0,30.36,North,360,0.0,0.0,75,0.00,,SCT250,0.00,VWS V14.01,2013-05-04 04:19:00,
2013-05-04 00:26:00,49.7,42.3,30.36,North,360,0.0,0.0,76,0.00,,SCT250,0.00,VWS V14.01,2013-05-04 04:26:00,
2013-05-04 00:34:00,49.6,42.2,30.36,North,360,0.0,0.0,76,0.00,,SCT250,0.00,VWS V14.01,2013-05-04 04:34:00,
2013-05-04 00:44:00,49.6,42.6,30.35,North,360,0.0,0.0,77,0.00,,SCT250,0.00,VWS V14.01,2013-05-04 04:44:00,
2013-05-04 00:49:00,49.6,42.6,30.35,North,360,0.0,0.0,77,0.00,,SCT250,0.00,VWS V14.01,2013-05-04 04:49:00,
2013-05-04 00:54:00,49.7,42.7,30.35,North,360,0.0,0.0,77,0.00,,SCT250,0.00,VWS V14.01,2013-05-04 04:54:00,
2013-05-04 01:07:00,49.8,42.8,30.35,North,360,0.0,0.0,77,0.00,,SCT250,0.00,VWS V14.01,2013-05-04 05:07:00,
2013-05-04 01:14:00,49.8,42.8,30.34,North,360,0.0,0.0,77,0.00,,SCT250,0.00,VWS V14.01,2013-05-04 05:14:00,
2013-05-04 01:19:00,49.9,42.9,30.34,North,360,0.0,0.0,77,0.00,,SCT250,0.00,VWS V14.01,2013-05-04 05:19:00,
2013-05-04 01:24:00,50.0,43.3,30.34,North,360,0.0,0.0,78,0.00,,SCT250,0.00,VWS V14.01,2013-05-04 05:24:00,
2013-05-04 01:29:00,50.1,43.4,30.34,North,360,0.0,0.0,78,0.00,,SCT250,0.00,VWS V14.01,2013-05-04 05:29:00,
2013-05-04 01:34:00,50.0,43.3,30.33,North,360,0.0,0.0,78,0.00,,SCT250,0.00,VWS V14.01,2013-05-04 05:34:00,
2013-05-04 01:39:00,50.1,43.4,30.33,North,360,0.0,0.0,78,0.00,,SCT250,0.00,VWS V14.01,2013-05-04 05:39:00,
2013-05-04 01:44:00,50.0,43.3,30.33,North,360,0.0,0.0,78,0.00,,SCT250,0.00,VWS V14.01,2013-05-04 05:44:00,
2013-05-04 01:49:00,50.3,44.0,30.33,North,360,0.0,0.0,79,0.00,,SCT250,0.00,VWS V14.01,2013-05-04 05:49:00,
2013-05-04 01:54:00,50.3,43.6,30.33,North,360,0.0,0.0,78,0.00,,SCT250,0.00,VWS V14.01,2013-05-04 05:54:00,
2013-05-04 02:07:00,50.1,43.4,30.32,North,360,0.0,0.0,78,0.00,,OVC021,0.00,VWS V14.01,2013-05-04 06:07:00,
2013-05-04 02:14:00,50.2,43.9,30.32,North,360,0.0,0.0,79,0.00,,OVC021,0.00,VWS V14.01,2013-05-04 06:14:00,
2013-05-04 02:19:00,50.0,43.3,30.31,North,360,0.0,0.0,78,0.00,,OVC021,0.00,VWS V14.01,2013-05-04 06:19:00,
2013-05-04 02:29:00,50.1,43.4,30.31,North,360,0.0,0.0,78,0.00,,OVC021,0.00,VWS V14.01,2013-05-04 06:29:00,
2013-05-04 02:34:00,49.9,43.6,30.31,North,360,0.0,0.0,79,0.00,,OVC021,0.00,VWS V14.01,2013-05-04 06:34:00,
2013-05-04 02:39:00,50.0,44.0,30.31,North,360,0.0,0.0,80,0.00,,OVC021,0.00,VWS V14.01,2013-05-04 06:39:00,
2013-05-04 02:49:00,50.0,44.0,30.30,North,360,0.0,0.0,80,0.00,,OVC021,0.00,VWS V14.01,2013-05-04 06:49:00,
2013-05-04 02:54:00,50.2,44.2,30.30,North,360,0.0,0.0,80,0.00,,OVC021,0.00,VWS V14.01,2013-05-04 06:54:00,
2013-05-04 02:59:00,50.1,44.1,30.30,North,360,0.0,0.0,80,0.00,,OVC021,0.00,VWS V14.01,2013-05-04 06:59:00,
2013-05-04 03:07:00,50.1,44.1,30.30,North,360,0.0,0.0,80,0.00,,OVC021,0.00,VWS V14.01,2013-05-04 07:07:00,
2013-05-04 03:14:00,50.3,44.7,30.30,North,360,0.0,0.0,81,0.00,,OVC021,0.00,VWS V14.01,2013-05-04 07:14:00,
2013-05-04 03:19:00,50.3,44.7,30.30,North,360,0.0,0.0,81,0.00,,OVC021,0.00,VWS V14.01,2013-05-04 07:19:00,
2013-05-04 03:24:00,50.2,44.6,30.30,North,360,0.0,0.0,81,0.00,,OVC021,0.00,VWS V14.01,2013-05-04 07:24:00,
2013-05-04 03:29:00,50.3,45.0,30.30,North,360,0.0,0.0,82,0.00,,OVC021,0.00,VWS V14.01,2013-05-04 07:29:00,
2013-05-04 03:34:00,50.4,45.1,30.30,North,360,0.0,0.0,82,0.00,,OVC021,0.00,VWS V14.01,2013-05-04 07:34:00,
2013-05-04 03:39:00,50.3,44.7,30.29,North,360,0.0,0.0,81,0.00,,OVC021,0.00,VWS V14.01,2013-05-04 07:39:00,
2013-05-04 03:44:00,50.4,45.1,30.29,North,360,0.0,0.0,82,0.00,,OVC021,0.00,VWS V14.01,2013-05-04 07:44:00,
2013-05-04 03:54:00,50.5,45.2,30.29,North,360,0.0,0.0,82,0.00,,OVC021,0.00,VWS V14.01,2013-05-04 07:54:00,
2013-05-04 03:59:00,50.6,45.3,30.30,North,360,0.0,0.0,82,0.00,,OVC017,0.00,VWS V14.01,2013-05-04 07:59:00,
2013-05-04 04:07:00,50.7,45.4,30.30,North,360,0.0,0.0,82,0.00,,OVC017,0.00,VWS V14.01,2013-05-04 08:07:00,
2013-05-04 04:13:00,50.8,45.5,30.30,North,360,0.0,0.0,82,0.00,,OVC017,0.00,VWS V14.01,2013-05-04 08:13:00,
2013-05-04 04:19:00,50.9,45.6,30.29,North,360,0.0,0.0,82,0.00,,OVC017,0.00,VWS V14.01,2013-05-04 08:19:00,
2013-05-04 04:24:00,50.9,45.6,30.29,North,360,0.0,0.0,82,0.00,,OVC017,0.00,VWS V14.01,2013-05-04 08:24:00,
2013-05-04 04:29:00,50.8,45.2,30.30,North,360,0.0,0.0,81,0.00,,OVC017,0.00,VWS V14.01,2013-05-04 08:29:00,
2013-05-04 04:34:00,50.9,45.6,30.30,North,360,0.0,0.0,82,0.00,,OVC017,0.00,VWS V14.01,2013-05-04 08:34:00,
2013-05-04 04:39:00,50.8,45.5,30.30,North,360,0.0,0.0,82,0.00,,OVC017,0.00,VWS V14.01,2013-05-04 08:39:00,
2013-05-04 04:44:00,50.8,45.5,30.30,North,360,0.0,0.0,82,0.00,,OVC017,0.00,VWS V14.01,2013-05-04 08:44:00,
2013-05-04 04:54:00,50.8,45.5,30.30,North,360,0.0,0.0,82,0.00,,OVC017,0.00,VWS V14.01,2013-05-04 08:54:00,
2013-05-04 05:07:00,50.7,45.8,30.30,North,360,0.0,0.0,83,0.00,,OVC017,0.00,VWS V14.01,2013-05-04 09:07:00,
2013-05-04 05:14:00,50.8,45.8,30.30,North,360,0.0,0.0,83,0.00,,OVC017,0.00,VWS V14.01,2013-05-04 09:14:00,
2013-05-04 05:26:00,50.9,45.9,30.30,North,360,0.0,0.0,83,0.00,,OVC017,0.00,VWS V14.01,2013-05-04 09:26:00,
2013-05-04 05:34:00,50.9,45.6,30.30,North,360,0.0,0.0,82,0.00,,OVC017,0.00,VWS V14.01,2013-05-04 09:34:00,
2013-05-04 05:39:00,51.0,45.7,30.30,North,360,0.0,0.0,82,0.00,,OVC017,0.00,VWS V14.01,2013-05-04 09:39:00,
2013-05-04 05:49:00,50.8,45.5,30.30,North,360,0.0,0.0,82,0.00,,OVC017,0.00,VWS V14.01,2013-05-04 09:49:00,
2013-05-04 05:54:00,50.7,45.4,30.30,North,360,0.0,0.0,82,0.00,,OVC017,0.00,VWS V14.01,2013-05-04 09:54:00,
2013-05-04 05:59:00,50.7,45.8,30.31,North,360,0.0,0.0,83,0.00,,OVC015,0.00,VWS V14.01,2013-05-04 09:59:00,
2013-05-04 06:07:00,50.7,45.8,30.31,North,360,0.0,0.0,83,0.00,,OVC015,0.00,VWS V14.01,2013-05-04 10:07:00,
2013-05-04 06:14:00,50.8,45.8,30.31,North,360,0.0,0.0,83,0.00,,OVC015,0.00,VWS V14.01,2013-05-04 10:14:00,
2013-05-04 06:19:00,50.7,45.8,30.31,North,360,0.0,0.0,83,0.00,,OVC015,0.00,VWS V14.01,2013-05-04 10:19:00,
2013-05-04 06:24:00,50.8,45.5,30.31,North,360,0.0,0.0,82,0.00,,OVC015,0.00,VWS V14.01,2013-05-04 10:24:00,
2013-05-04 06:29:00,50.8,45.5,30.31,North,360,0.0,0.0,82,0.00,,OVC015,0.00,VWS V14.01,2013-05-04 10:29:00,
2013-05-04 06:34:00,50.9,45.6,30.31,North,360,0.0,0.0,82,0.00,,OVC015,0.00,VWS V14.01,2013-05-04 10:34:00,
2013-05-04 06:39:00,51.1,46.1,30.32,North,360,0.0,0.0,83,0.00,,OVC015,0.00,VWS V14.01,2013-05-04 10:39:00,
2013-05-04 06:44:00,51.0,45.4,30.32,North,360,0.0,0.0,81,0.00,,OVC015,0.00,VWS V14.01,2013-05-04 10:44:00,
2013-05-04 06:49:00,51.1,45.5,30.31,North,360,0.0,0.0,81,0.00,,OVC015,0.00,VWS V14.01,2013-05-04 10:49:00,
2013-05-04 06:54:00,51.1,45.5,30.32,North,360,0.0,0.0,81,0.00,,OVC015,0.00,VWS V14.01,2013-05-04 10:54:00,
2013-05-04 06:59:00,51.0,45.4,30.32,North,360,0.0,0.0,81,0.00,,BKN250,0.00,VWS V14.01,2013-05-04 10:59:00,
2013-05-04 07:07:00,50.9,45.3,30.32,North,360,0.0,0.0,81,0.00,,BKN250,0.00,VWS V14.01,2013-05-04 11:07:00,
2013-05-04 07:14:00,50.8,45.5,30.32,North,360,0.0,0.0,82,0.00,,BKN250,0.00,VWS V14.01,2013-05-04 11:14:00,
2013-05-04 07:19:00,50.7,45.4,30.32,North,360,0.0,0.0,82,0.00,,BKN250,0.00,VWS V14.01,2013-05-04 11:19:00,
2013-05-04 07:24:00,50.8,45.5,30.32,North,360,0.0,0.0,82,0.00,,BKN250,0.00,VWS V14.01,2013-05-04 11:24:00,
2013-05-04 07:34:00,51.2,45.5,30.32,North,360,0.0,0.0,81,0.00,,BKN250,0.00,VWS V14.01,2013-05-04 11:34:00,
2013-05-04 07:39:00,51.3,45.7,30.32,North,360,0.0,0.0,81,0.00,,BKN250,0.00,VWS V14.01,2013-05-04 11:39:00,
2013-05-04 07:49:00,51.6,45.6,30.32,North,360,0.0,0.0,80,0.00,,BKN250,0.00,VWS V14.01,2013-05-04 11:49:00,
2013-05-04 07:54:00,51.7,45.3,30.32,North,360,0.0,0.0,79,0.00,,BKN250,0.00,VWS V14.01,2013-05-04 11:54:00,
2013-05-04 08:07:00,51.8,45.4,30.32,North,360,0.0,0.0,79,0.00,,BKN250,0.00,VWS V14.01,2013-05-04 12:07:00,
2013-05-04 08:14:00,52.1,45.4,30.32,North,360,0.0,0.0,78,0.00,,BKN250,0.00,VWS V14.01,2013-05-04 12:14:00,
2013-05-04 08:24:00,52.1,45.0,30.32,North,360,0.0,0.0,77,0.00,,BKN250,0.00,VWS V14.01,2013-05-04 12:24:00,
2013-05-04 08:29:00,52.4,44.6,30.32,North,360,0.0,0.0,75,0.00,,BKN250,0.00,VWS V14.01,2013-05-04 12:29:00,
2013-05-04 08:34:00,52.6,44.4,30.31,North,360,0.0,0.0,73,0.00,,BKN250,0.00,VWS V14.01,2013-05-04 12:34:00,
2013-05-04 08:44:00,53.1,45.2,30.32,North,360,0.0,0.0,75,0.00,,BKN250,0.00,VWS V14.01,2013-05-04 12:44:00,
2013-05-04 08:49:00,53.2,45.3,30.32,North,360,0.0,0.0,75,0.00,,BKN250,0.00,VWS V14.01,2013-05-04 12:49:00,
2013-05-04 08:54:00,52.7,45.6,30.32,North,360,0.0,0.0,77,0.00,,BKN250,0.00,VWS V14.01,2013-05-04 12:54:00,
2013-05-04 08:59:00,53.0,45.1,30.31,North,360,0.0,0.0,75,0.00,,BKN250,0.00,VWS V14.01,2013-05-04 12:59:00,
2013-05-04 09:07:00,54.0,44.6,30.31,North,360,0.0,0.0,70,0.00,,BKN250,0.00,VWS V14.01,2013-05-04 13:07:00,
2013-05-04 09:09:00,53.9,44.5,30.31,North,360,0.0,0.0,70,0.00,,BKN250,0.00,VWS V14.01,2013-05-04 13:09:00,
2013-05-04 09:14:00,54.2,45.2,30.31,North,360,0.0,0.0,71,0.00,,BKN250,0.00,VWS V14.01,2013-05-04 13:14:00,
2013-05-04 09:19:00,55.4,45.5,30.31,North,360,0.0,0.0,69,0.00,,BKN250,0.00,VWS V14.01,2013-05-04 13:19:00,
2013-05-04 09:24:00,55.7,43.3,30.31,North,360,0.0,0.0,63,0.00,,BKN250,0.00,VWS V14.01,2013-05-04 13:24:00,
2013-05-04 09:29:00,56.5,42.7,30.31,North,360,0.0,0.0,60,0.00,,BKN250,0.00,VWS V14.01,2013-05-04 13:29:00,
2013-05-04 09:34:00,57.2,44.2,30.31,North,360,0.0,0.0,62,0.00,,BKN250,0.00,VWS V14.01,2013-05-04 13:34:00,
2013-05-04 09:39:00,56.6,43.2,30.30,North,360,0.0,0.0,61,0.00,,BKN250,0.00,VWS V14.01,2013-05-04 13:39:00,
2013-05-04 09:44:00,56.0,43.6,30.30,North,360,0.0,0.0,63,0.00,,BKN250,0.00,VWS V14.01,2013-05-04 13:44:00,
2013-05-04 09:54:00,55.3,44.2,30.30,North,360,0.0,0.0,66,0.00,,BKN250,0.00,VWS V14.01,2013-05-04 13:54:00,
2013-05-04 09:59:00,56.1,43.7,30.30,North,360,0.0,0.0,63,0.00,,BKN250,0.00,VWS V14.01,2013-05-04 13:59:00,
2013-05-04 10:07:00,56.5,42.7,30.30,North,360,0.0,0.0,60,0.00,,BKN250,0.00,VWS V14.01,2013-05-04 14:07:00,
2013-05-04 10:14:00,56.5,42.7,30.30,North,360,0.0,0.0,60,0.00,,BKN250,0.00,VWS V14.01,2013-05-04 14:14:00,
2013-05-04 10:19:00,56.9,42.1,30.30,North,360,0.0,0.0,58,0.00,,BKN250,0.00,VWS V14.01,2013-05-04 14:19:00,
2013-05-04 10:24:00,57.6,42.3,30.30,North,360,0.0,0.0,57,0.00,,BKN250,0.00,VWS V14.01,2013-05-04 14:24:00,
2013-05-04 10:34:00,57.6,41.3,30.30,North,360,0.0,0.0,54,0.00,,BKN250,0.00,VWS V14.01,2013-05-04 14:34:00,
2013-05-04 10:39:00,57.5,40.7,30.30,North,360,0.0,0.0,53,0.00,,BKN250,0.00,VWS V14.01,2013-05-04 14:39:00,
2013-05-04 10:44:00,57.9,42.1,30.30,North,360,0.0,0.0,55,0.00,,BKN250,0.00,VWS V14.01,2013-05-04 14:44:00,
2013-05-04 10:54:00,58.3,38.8,30.30,North,360,0.0,0.0,48,0.00,,BKN250,0.00,VWS V14.01,2013-05-04 14:54:00,
2013-05-04 10:59:00,58.5,39.5,30.29,North,360,0.0,0.0,49,0.00,,BKN250,0.00,VWS V14.01,2013-05-04 14:59:00,
2013-05-04 11:07:00,58.2,39.2,30.29,North,360,0.0,0.0,49,0.00,,BKN250,0.00,VWS V14.01,2013-05-04 15:07:00,
2013-05-04 11:14:00,58.8,39.2,30.29,North,360,0.0,0.0,48,0.00,,BKN250,0.00,VWS V14.01,2013-05-04 15:14:00,
2013-05-04 11:19:00,59.0,39.4,30.29,North,360,0.0,0.0,48,0.00,,BKN250,0.00,VWS V14.01,2013-05-04 15:19:00,
2013-05-04 11:24:00,59.7,42.2,30.29,North,360,0.0,0.0,52,0.00,,BKN250,0.00,VWS V14.01,2013-05-04 15:24:00,
2013-05-04 11:29:00,59.9,41.9,30.29,North,360,0.0,0.0,51,0.00,,BKN250,0.00,VWS V14.01,2013-05-04 15:29:00,
2013-05-04 11:34:00,60.1,41.5,30.29,North,360,0.0,0.0,50,0.00,,BKN250,0.00,VWS V14.01,2013-05-04 15:34:00,
2013-05-04 11:39:00,60.7,41.5,30.29,North,360,0.0,0.0,49,0.00,,BKN250,0.00,VWS V14.01,2013-05-04 15:39:00,
2013-05-04 11:44:00,61.0,42.3,30.28,North,360,0.0,0.0,50,0.00,,BKN250,0.00,VWS V14.01,2013-05-04 15:44:00,
2013-05-04 11:49:00,60.7,41.5,30.28,North,360,0.0,0.0,49,0.00,,BKN250,0.00,VWS V14.01,2013-05-04 15:49:00,
2013-05-04 11:59:00,59.9,40.2,30.28,North,360,0.0,0.0,48,0.00,,BKN250,0.00,VWS V14.01,2013-05-04 15:59:00,
2013-05-04 12:07:00,60.4,41.2,30.28,North,360,0.0,0.0,49,0.00,,BKN250,0.00,VWS V14.01,2013-05-04 16:07:00,
2013-05-04 12:14:00,61.7,42.4,30.27,North,360,0.0,0.0,49,0.00,,BKN250,0.00,VWS V14.01,2013-05-04 16:14:00,
2013-05-04 12:19:00,62.0,42.7,30.27,North,360,0.0,0.0,49,0.00,,BKN250,0.00,VWS V14.01,2013-05-04 16:19:00,
2013-05-04 12:29:00,61.7,41.3,30.27,North,360,0.0,0.0,47,0.00,,BKN250,0.00,VWS V14.01,2013-05-04 16:29:00,
2013-05-04 12:34:00,62.0,42.1,30.27,North,360,0.0,0.0,48,0.00,,BKN250,0.00,VWS V14.01,2013-05-04 16:34:00,
2013-05-04 12:39:00,61.8,41.4,30.27,North,360,0.0,0.0,47,0.00,,BKN250,0.00,VWS V14.01,2013-05-04 16:39:00,
2013-05-04 12:44:00,61.4,40.4,30.27,North,360,0.0,0.0,46,0.00,,BKN250,0.00,VWS V14.01,2013-05-04 16:44:00,
2013-05-04 12:49:00,61.4,41.0,30.27,North,360,0.0,0.0,47,0.00,,BKN250,0.00,VWS V14.01,2013-05-04 16:49:00,
2013-05-04 12:59:00,62.3,42.4,30.26,North,360,0.0,0.0,48,0.00,,BKN250,0.00,VWS V14.01,2013-05-04 16:59:00,
2013-05-04 13:07:00,62.3,41.8,30.26,North,360,0.0,0.0,47,0.00,,BKN250,0.00,VWS V14.01,2013-05-04 17:07:00,
2013-05-04 13:14:00,62.4,42.5,30.26,North,360,0.0,0.0,48,0.00,,BKN250,0.00,VWS V14.01,2013-05-04 17:14:00,
2013-05-04 13:19:00,62.3,42.4,30.26,North,360,0.0,0.0,48,0.00,,BKN250,0.00,VWS V14.01,2013-05-04 17:19:00,
2013-05-04 13:24:00,62.3,42.4,30.26,North,360,0.0,0.0,48,0.00,,BKN250,0.00,VWS V14.01,2013-05-04 17:24:00,
2013-05-04 13:29:00,62.6,43.3,30.26,North,360,0.0,0.0,49,0.00,,BKN250,0.00,VWS V14.01,2013-05-04 17:29:00,
2013-05-04 13:34:00,62.8,42.9,30.26,North,360,0.0,0.0,48,0.00,,BKN250,0.00,VWS V14.01,2013-05-04 17:34:00,
2013-05-04 13:39:00,62.6,42.7,30.26,North,360,0.0,0.0,48,0.00,,BKN250,0.00,VWS V14.01,2013-05-04 17:39:00,
2013-05-04 13:44:00,62.8,42.9,30.26,North,360,0.0,0.0,48,0.00,,BKN250,0.00,VWS V14.01,2013-05-04 17:44:00,
2013-05-04 13:49:00,62.8,42.9,30.26,North,360,0.0,0.0,48,0.00,,BKN250,0.00,VWS V14.01,2013-05-04 17:49:00,
2013-05-04 13:59:00,64.0,44.0,30.26,North,360,0.0,0.0,48,0.00,,BKN250,0.00,VWS V14.01,2013-05-04 17:59:00,
2013-05-04 14:07:00,63.5,43.5,30.25,North,360,0.0,0.0,48,0.00,,BKN250,0.00,VWS V14.01,2013-05-04 18:07:00,
2013-05-04 14:14:00,63.2,42.7,30.25,North,360,0.0,0.0,47,0.00,,BKN250,0.00,VWS V14.01,2013-05-04 18:14:00,
2013-05-04 14:19:00,63.5,42.9,30.25,North,360,0.0,0.0,47,0.00,,BKN250,0.00,VWS V14.01,2013-05-04 18:19:00,
2013-05-04 14:26:00,63.1,43.2,30.25,North,360,0.0,0.0,48,0.00,,BKN250,0.00,VWS V14.01,2013-05-04 18:26:00,
2013-05-04 14:34:00,63.1,42.0,30.25,North,360,0.0,0.0,46,0.00,,BKN250,0.00,VWS V14.01,2013-05-04 18:34:00,
2013-05-04 14:39:00,63.3,42.8,30.24,North,360,0.0,0.0,47,0.00,,BKN250,0.00,VWS V14.01,2013-05-04 18:39:00,
2013-05-04 14:44:00,63.1,42.6,30.24,North,360,0.0,0.0,47,0.00,,BKN250,0.00,VWS V14.01,2013-05-04 18:44:00,
2013-05-04 14:49:00,63.5,43.5,30.24,North,360,0.0,0.0,48,0.00,,BKN250,0.00,VWS V14.01,2013-05-04 18:49:00,
2013-05-04 14:54:00,63.4,42.8,30.24,North,360,0.0,0.0,47,0.00,,BKN250,0.00,VWS V14.01,2013-05-04 18:54:00,
2013-05-04 14:59:00,63.8,42.6,30.23,North,360,0.0,0.0,46,0.00,,BKN250,0.00,VWS V14.01,2013-05-04 18:59:00,
2013-05-04 15:07:00,64.3,43.1,30.23,North,360,0.0,0.0,46,0.00,,BKN250,0.00,VWS V14.01,2013-05-04 19:07:00,
2013-05-04 15:14:00,65.3,44.6,30.23,North,360,0.0,0.0,47,0.00,,BKN250,0.00,VWS V14.01,2013-05-04 19:14:00,
2013-05-04 15:19:00,64.7,42.8,30.23,North,360,0.0,0.0,45,0.00,,BKN250,0.00,VWS V14.01,2013-05-04 19:19:00,
2013-05-04 15:24:00,64.8,43.5,30.22,North,360,0.0,0.0,46,0.00,,BKN250,0.00,VWS V14.01,2013-05-04 19:24:00,
2013-05-04 15:29:00,64.9,41.8,30.22,North,360,0.0,0.0,43,0.00,,BKN250,0.00,VWS V14.01,2013-05-04 19:29:00,
2013-05-04 15:34:00,64.9,41.8,30.22,North,360,0.0,0.0,43,0.00,,BKN250,0.00,VWS V14.01,2013-05-04 19:34:00,
2013-05-04 15:39:00,65.0,42.5,30.22,North,360,0.0,0.0,44,0.00,,BKN250,0.00,VWS V14.01,2013-05-04 19:39:00,
2013-05-04 15:44:00,65.2,43.9,30.22,North,360,0.0,0.0,46,0.00,,BKN250,0.00,VWS V14.01,2013-05-04 19:44:00,
2013-05-04 15:49:00,65.2,43.3,30.22,North,360,0.0,0.0,45,0.00,,BKN250,0.00,VWS V14.01,2013-05-04 19:49:00,
2013-05-04 15:54:00,65.0,41.2,30.22,North,360,0.0,0.0,42,0.00,,BKN250,0.00,VWS V14.01,2013-05-04 19:54:00,
2013-05-04 15:59:00,64.9,42.4,30.21,North,360,0.0,0.0,44,0.00,,BKN250,0.00,VWS V14.01,2013-05-04 19:59:00,
2013-05-04 16:07:00,65.4,44.1,30.21,North,360,0.0,0.0,46,0.00,,BKN250,0.00,VWS V14.01,2013-05-04 20:07:00,
2013-05-04 16:14:00,65.4,42.8,30.21,North,360,0.0,0.0,44,0.00,,BKN250,0.00,VWS V14.01,2013-05-04 20:14:00,
2013-05-04 16:19:00,65.3,41.5,30.22,North,360,0.0,0.0,42,0.00,,BKN250,0.00,VWS V14.01,2013-05-04 20:19:00,
2013-05-04 16:24:00,65.2,43.3,30.21,North,360,0.0,0.0,45,0.00,,BKN250,0.00,VWS V14.01,2013-05-04 20:24:00,
2013-05-04 16:29:00,64.9,42.4,30.21,North,360,0.0,0.0,44,0.00,,BKN250,0.00,VWS V14.01,2013-05-04 20:29:00,
2013-05-04 16:34:00,65.1,43.8,30.21,North,360,0.0,0.0,46,0.00,,BKN250,0.00,VWS V14.01,2013-05-04 20:34:00,
2013-05-04 16:39:00,65.0,42.5,30.21,North,360,0.0,0.0,44,0.00,,BKN250,0.00,VWS V14.01,2013-05-04 20:39:00,
2013-05-04 16:44:00,65.1,43.8,30.21,North,360,0.0,0.0,46,0.00,,BKN250,0.00,VWS V14.01,2013-05-04 20:44:00,
2013-05-04 16:54:00,64.9,42.4,30.21,North,360,0.0,0.0,44,0.00,,BKN250,0.00,VWS V14.01,2013-05-04 20:54:00,
2013-05-04 16:59:00,65.3,44.0,30.21,North,360,0.0,0.0,46,0.00,,BKN250,0.00,VWS V14.01,2013-05-04 20:59:00,
2013-05-04 17:07:00,64.9,42.4,30.20,North,360,0.0,0.0,44,0.00,,BKN250,0.00,VWS V14.01,2013-05-04 21:07:00,
2013-05-04 17:14:00,64.9,43.0,30.20,North,360,0.0,0.0,45,0.00,,BKN250,0.00,VWS V14.01,2013-05-04 21:14:00,
2013-05-04 17:19:00,65.1,43.8,30.20,North,360,0.0,0.0,46,0.00,,BKN250,0.00,VWS V14.01,2013-05-04 21:19:00,
2013-05-04 17:24:00,64.8,42.3,30.20,North,360,0.0,0.0,44,0.00,,BKN250,0.00,VWS V14.01,2013-05-04 21:24:00,
2013-05-04 17:29:00,64.4,41.9,30.20,North,360,0.0,0.0,44,0.00,,BKN250,0.00,VWS V14.01,2013-05-04 21:29:00,
2013-05-04 17:34:00,64.8,42.3,30.20,North,360,0.0,0.0,44,0.00,,BKN250,0.00,VWS V14.01,2013-05-04 21:34:00,
2013-05-04 17:39:00,64.4,41.3,30.20,North,360,0.0,0.0,43,0.00,,BKN250,0.00,VWS V14.01,2013-05-04 21:39:00,
2013-05-04 17:44:00,64.6,41.5,30.20,North,360,0.0,0.0,43,0.00,,BKN250,0.00,VWS V14.01,2013-05-04 21:44:00,
2013-05-04 17:49:00,64.8,41.0,30.20,North,360,0.0,0.0,42,0.00,,BKN250,0.00,VWS V14.01,2013-05-04 21:49:00,
2013-05-04 17:54:00,64.7,40.2,30.20,North,360,0.0,0.0,41,0.00,,BKN250,0.00,VWS V14.01,2013-05-04 21:54:00,
2013-05-04 17:59:00,64.7,42.2,30.20,North,360,0.0,0.0,44,0.00,,BKN250,0.00,VWS V14.01,2013-05-04 21:59:00,
2013-05-04 18:07:00,64.7,41.6,30.20,North,360,0.0,0.0,43,0.00,,BKN250,0.00,VWS V14.01,2013-05-04 22:07:00,
2013-05-04 18:14:00,64.7,42.2,30.20,North,360,0.0,0.0,44,0.00,,BKN250,0.00,VWS V14.01,2013-05-04 22:14:00,
2013-05-04 18:19:00,64.5,41.4,30.20,North,360,0.0,0.0,43,0.00,,BKN250,0.00,VWS V14.01,2013-05-04 22:19:00,
2013-05-04 18:26:00,64.6,42.1,30.20,North,360,0.0,0.0,44,0.00,,BKN250,0.00,VWS V14.01,2013-05-04 22:26:00,
2013-05-04 18:34:00,64.4,40.7,30.19,North,360,0.0,0.0,42,0.00,,BKN250,0.00,VWS V14.01,2013-05-04 22:34:00,
2013-05-04 18:39:00,64.2,39.1,30.20,North,360,0.0,0.0,40,0.00,,BKN250,0.00,VWS V14.01,2013-05-04 22:39:00,
2013-05-04 18:44:00,64.3,40.6,30.20,North,360,0.0,0.0,42,0.00,,BKN250,0.00,VWS V14.01,2013-05-04 22:44:00,
2013-05-04 18:49:00,64.3,39.9,30.20,North,360,0.0,0.0,41,0.00,,BKN250,0.00,VWS V14.01,2013-05-04 22:49:00,
2013-05-04 18:54:00,64.1,39.7,30.20,North,360,0.0,0.0,41,0.00,,BKN250,0.00,VWS V14.01,2013-05-04 22:54:00,
2013-05-04 18:59:00,63.9,39.5,30.20,North,360,0.0,0.0,41,0.00,,BKN250,0.00,VWS V14.01,2013-05-04 22:59:00,
2013-05-04 19:07:00,63.4,39.1,30.20,North,360,0.0,0.0,41,0.00,,BKN250,0.00,VWS V14.01,2013-05-04 23:07:00,
2013-05-04 19:14:00,63.0,40.7,30.20,North,360,0.0,0.0,44,0.00,,BKN250,0.00,VWS V14.01,2013-05-04 23:14:00,
2013-05-04 19:19:00,62.7,39.8,30.20,North,360,0.0,0.0,43,0.00,,BKN250,0.00,VWS V14.01,2013-05-04 23:19:00,
2013-05-04 19:29:00,62.2,39.9,30.21,North,360,0.0,0.0,44,0.00,,BKN250,0.00,VWS V14.01,2013-05-04 23:29:00,
2013-05-04 19:34:00,61.9,40.3,30.21,North,360,0.0,0.0,45,0.00,,BKN250,0.00,VWS V14.01,2013-05-04 23:34:00,
2013-05-04 19:39:00,61.5,39.3,30.21,North,360,0.0,0.0,44,0.00,,BKN250,0.00,VWS V14.01,2013-05-04 23:39:00,
2013-05-04 19:44:00,61.3,39.1,30.21,North,360,0.0,0.0,44,0.00,,BKN250,0.00,VWS V14.01,2013-05-04 23:44:00,
2013-05-04 19:49:00,61.1,39.5,30.21,North,360,0.0,0.0,45,0.00,,BKN250,0.00,VWS V14.01,2013-05-04 23:49:00,
2013-05-04 19:54:00,60.8,39.3,30.22,North,360,0.0,0.0,45,0.00,,BKN250,0.00,VWS V14.01,2013-05-04 23:54:00,
2013-05-04 19:59:00,60.6,40.3,30.22,North,360,0.0,0.0,47,0.00,,BKN250,0.00,VWS V14.01,2013-05-04 23:59:00,
2013-05-04 20:07:00,60.3,39.4,30.22,North,360,0.0,0.0,46,0.00,,BKN250,0.00,VWS V14.01,2013-05-05 00:07:00,
2013-05-04 20:14:00,59.7,40.0,30.23,North,360,0.0,0.0,48,0.00,,BKN250,0.00,VWS V14.01,2013-05-05 00:14:00,
2013-05-04 20:19:00,59.5,39.8,30.23,North,360,0.0,0.0,48,0.00,,BKN250,0.00,VWS V14.01,2013-05-05 00:19:00,
2013-05-04 20:24:00,59.4,39.8,30.23,North,360,0.0,0.0,48,0.00,,BKN250,0.00,VWS V14.01,2013-05-05 00:24:00,
2013-05-04 20:29:00,59.1,40.6,30.23,North,360,0.0,0.0,50,0.00,,BKN250,0.00,VWS V14.01,2013-05-05 00:29:00,
2013-05-04 20:34:00,58.9,40.4,30.23,North,360,0.0,0.0,50,0.00,,BKN250,0.00,VWS V14.01,2013-05-05 00:34:00,
2013-05-04 20:44:00,58.5,40.6,30.23,North,360,0.0,0.0,51,0.00,,BKN250,0.00,VWS V14.01,2013-05-05 00:44:00,
2013-05-04 20:49:00,58.4,40.5,30.23,North,360,0.0,0.0,51,0.00,,BKN250,0.00,VWS V14.01,2013-05-05 00:49:00,
2013-05-04 20:54:00,58.1,40.2,30.23,North,360,0.0,0.0,51,0.00,,BKN250,0.00,VWS V14.01,2013-05-05 00:54:00,
2013-05-04 20:59:00,58.0,40.1,30.23,North,360,0.0,0.0,51,0.00,,BKN250,0.00,VWS V14.01,2013-05-05 00:59:00,
2013-05-04 21:07:00,57.8,40.5,30.23,North,360,0.0,0.0,52,0.00,,BKN250,0.00,VWS V14.01,2013-05-05 01:07:00,
2013-05-04 21:14:00,57.6,39.7,30.23,North,360,0.0,0.0,51,0.00,,BKN250,0.00,VWS V14.01,2013-05-05 01:14:00,
2013-05-04 21:19:00,57.4,40.1,30.23,North,360,0.0,0.0,52,0.00,,BKN250,0.00,VWS V14.01,2013-05-05 01:19:00,
2013-05-04 21:24:00,57.3,40.5,30.24,North,360,0.0,0.0,53,0.00,,BKN250,0.00,VWS V14.01,2013-05-05 01:24:00,
2013-05-04 21:29:00,57.2,40.4,30.24,North,360,0.0,0.0,53,0.00,,BKN250,0.00,VWS V14.01,2013-05-05 01:29:00,
2013-05-04 21:34:00,57.1,40.3,30.24,North,360,0.0,0.0,53,0.00,,BKN250,0.00,VWS V14.01,2013-05-05 01:34:00,
2013-05-04 21:39:00,56.9,39.6,30.24,North,360,0.0,0.0,52,0.00,,BKN250,0.00,VWS V14.01,2013-05-05 01:39:00,
2013-05-04 21:49:00,56.7,40.5,30.24,North,360,0.0,0.0,54,0.00,,BKN250,0.00,VWS V14.01,2013-05-05 01:49:00,
2013-05-04 21:54:00,56.4,40.7,30.25,North,360,0.0,0.0,55,0.00,,BKN250,0.00,VWS V14.01,2013-05-05 01:54:00,
2013-05-04 21:59:00,56.3,41.1,30.25,North,360,0.0,0.0,57,0.00,,BKN250,0.00,VWS V14.01,2013-05-05 01:59:00,
2013-05-04 22:07:00,56.0,41.3,30.25,North,360,0.0,0.0,58,0.00,,BKN250,0.00,VWS V14.01,2013-05-05 02:07:00,
2013-05-04 22:14:00,55.6,41.4,30.25,North,360,0.0,0.0,59,0.00,,BKN250,0.00,VWS V14.01,2013-05-05 02:14:00,
2013-05-04 22:19:00,55.4,40.7,30.25,North,360,0.0,0.0,58,0.00,,BKN250,0.00,VWS V14.01,2013-05-05 02:19:00,
2013-05-04 22:24:00,55.2,40.5,30.25,North,360,0.0,0.0,58,0.00,,BKN250,0.00,VWS V14.01,2013-05-05 02:24:00,
2013-05-04 22:29:00,54.9,39.8,30.25,North,360,0.0,0.0,57,0.00,,BKN250,0.00,VWS V14.01,2013-05-05 02:29:00,
2013-05-04 22:34:00,54.7,39.6,30.25,North,360,0.0,0.0,57,0.00,,BKN250,0.00,VWS V14.01,2013-05-05 02:34:00,
2013-05-04 22:39:00,54.7,39.6,30.25,North,360,0.0,0.0,57,0.00,,BKN250,0.00,VWS V14.01,2013-05-05 02:39:00,
2013-05-04 22:44:00,54.5,38.9,30.25,North,360,0.0,0.0,55,0.00,,BKN250,0.00,VWS V14.01,2013-05-05 02:44:00,
2013-05-04 22:49:00,54.4,38.8,30.25,North,360,0.0,0.0,55,0.00,,BKN250,0.00,VWS V14.01,2013-05-05 02:49:00,
2013-05-04 22:54:00,54.3,39.2,30.25,North,360,0.0,0.0,57,0.00,,BKN250,0.00,VWS V14.01,2013-05-05 02:54:00,
2013-05-04 22:59:00,54.3,39.7,30.25,North,360,0.0,0.0,58,0.00,,BKN250,0.00,VWS V14.01,2013-05-05 02:59:00,
2013-05-04 23:07:00,54.2,40.0,30.25,North,360,0.0,0.0,59,0.00,,BKN250,0.00,VWS V14.01,2013-05-05 03:07:00,
2013-05-04 23:14:00,54.0,38.4,30.25,North,360,0.0,0.0,55,0.00,,BKN250,0.00,VWS V14.01,2013-05-05 03:14:00,
2013-05-04 23:19:00,53.9,38.3,30.25,North,360,0.0,0.0,55,0.00,,BKN250,0.00,VWS V14.01,2013-05-05 03:19:00,
2013-05-04 23:24:00,53.8,38.7,30.25,North,360,0.0,0.0,57,0.00,,BKN250,0.00,VWS V14.01,2013-05-05 03:24:00,
2013-05-04 23:29:00,53.8,38.7,30.25,North,360,0.0,0.0,57,0.00,,BKN250,0.00,VWS V14.01,2013-05-05 03:29:00,
2013-05-04 23:34:00,53.5,38.9,30.25,North,360,0.0,0.0,58,0.00,,BKN250,0.00,VWS V14.01,2013-05-05 03:34:00,
2013-05-04 23:44:00,53.4,39.3,30.25,North,360,0.0,0.0,59,0.00,,BKN250,0.00,VWS V14.01,2013-05-05 03:44:00,
2013-05-04 23:49:00,53.4,39.3,30.25,North,360,0.0,0.0,59,0.00,,BKN250,0.00,VWS V14.01,2013-05-05 03:49:00,
2013-05-04 23:59:00,53.0,39.8,30.25,North,360,0.0,0.0,61,0.00,,BKN250,0.00,VWS V14.01,2013-05-05 03:59:00,